Simultaneous Nadir Overpasses (SNOs) Predictions

Prediction of SNOs between GOES-14 and AQUA Satellite Orbit:

Table of predicted SNOs for the next 14.0 days since TLE Epoch: 11/22/2019
Index Date Time (GOES-14) GOES-14 Lat,Lon AQUA Lat,Lon Distance(km) Time Diff (sec)
1 11/24/2019 08:26:47 0.06,-104.25 -0.19,-103.21 118.74 80
2 11/24/2019 20:48:10 -0.04,-104.06 -0.94,-108.40 492.55 80
3 11/26/2019 08:14:35 0.07,-104.25 -0.80,-100.25 455.30 80
4 11/26/2019 20:35:58 -0.05,-104.07 -0.33,-105.43 155.47 80
5 11/28/2019 20:26:26 -0.05,-104.07 0.28,-102.47 181.38 80
6 11/29/2019 08:47:43 0.03,-104.28 0.76,-107.64 383.02 80
7 12/01/2019 08:35:31 0.03,-104.28 0.14,-104.68 46.34 80
8 12/03/2019 08:20:39 0.04,-104.28 -0.48,-101.72 290.65 80
9 12/03/2019 20:42:02 -0.02,-104.07 -0.64,-106.90 323.14 80
10 12/05/2019 20:32:30 -0.02,-104.08 -0.01,-103.95 14.70 80




NCC Satellite Simultaneous Nadir Overpasses (SNOs) Prediction Service
